JANET2 YPAD-YPWR

Flight info

Callsign JANET2
Flight time 0h 43m
Altitude 32000
Route AREPA DCT SPOTA DCT WHA DCT OJJAY
Aircraft A321/M-SDE3FGHIRWY/LB1

Departure

Time 2026-04-21 09:23
Airport Adelaide International Airport (YPAD)

Arrival

Time 2026-04-21 10:06
Airport Woomera Airfield (YPWR)
Time Latitude Longitude Altitude Speed Heading
2026-04-21 09:10 -34.93981 138.53777 26 ft 2 kts 141°
2026-04-21 09:13 -34.93988 138.53783 31 ft 5 kts 141°
2026-04-21 09:13 -34.94028 138.53823 31 ft 8 kts 141°
2026-04-21 09:13 -34.94061 138.53884 26 ft 9 kts 127°
2026-04-21 09:14 -34.94118 138.53894 27 ft 9 kts 211°
2026-04-21 09:14 -34.94165 138.53838 30 ft 10 kts 227°
2026-04-21 09:14 -34.94215 138.53763 26 ft 13 kts 231°
2026-04-21 09:14 -34.94285 138.53663 28 ft 17 kts 230°
2026-04-21 09:15 -34.94365 138.53548 29 ft 18 kts 230°
2026-04-21 09:15 -34.94448 138.53428 26 ft 19 kts 230°
2026-04-21 09:15 -34.94516 138.53295 26 ft 19 kts 263°
2026-04-21 09:15 -34.94473 138.53151 26 ft 19 kts 303°
2026-04-21 09:16 -34.94458 138.53004 26 ft 18 kts 242°
2026-04-21 09:16 -34.94551 138.52898 28 ft 19 kts 215°
2026-04-21 09:16 -34.94657 138.52802 30 ft 19 kts 216°
2026-04-21 09:16 -34.94765 138.52702 27 ft 20 kts 217°
2026-04-21 09:17 -34.94875 138.52600 28 ft 20 kts 217°
2026-04-21 09:17 -34.94987 138.52495 27 ft 21 kts 218°
2026-04-21 09:17 -34.95100 138.52383 29 ft 21 kts 219°
2026-04-21 09:17 -34.95216 138.52278 31 ft 21 kts 218°
2026-04-21 09:18 -34.95316 138.52197 27 ft 15 kts 192°
2026-04-21 09:18 -34.95378 138.52207 28 ft 0 kts 159°
2026-04-21 09:21 -34.95382 138.52209 29 ft 1 kts 159°
2026-04-21 09:21 -34.95394 138.52217 28 ft 3 kts 151°
2026-04-21 09:21 -34.95412 138.52231 27 ft 5 kts 145°
2026-04-21 09:21 -34.95450 138.52289 28 ft 10 kts 100°
2026-04-21 09:22 -34.95412 138.52364 29 ft 14 kts 49°
2026-04-21 09:22 -34.95218 138.52648 28 ft 79 kts 50°
2026-04-21 09:22 -34.94718 138.53373 26 ft 142 kts 50°
2026-04-21 09:22 -34.94002 138.54397 374 ft 160 kts 47°
2026-04-21 09:23 -34.93290 138.55422 1042 ft 159 kts 47°
2026-04-21 09:23 -34.92572 138.56452 1673 ft 161 kts 45°
2026-04-21 09:23 -34.91812 138.57537 2131 ft 179 kts 45°
2026-04-21 09:23 -34.90951 138.58761 2493 ft 202 kts 46°
2026-04-21 09:24 -34.89952 138.60089 2821 ft 222 kts 36°
2026-04-21 09:24 -34.88487 138.60855 3106 ft 243 kts
2026-04-21 09:24 -34.86820 138.60412 3749 ft 254 kts 328°
2026-04-21 09:24 -34.85655 138.58799 4643 ft 262 kts 294°
2026-04-21 09:25 -34.85110 138.56656 5589 ft 268 kts 287°
2026-04-21 09:25 -34.84678 138.54432 6554 ft 273 kts 285°
2026-04-21 09:25 -34.84056 138.52255 7267 ft 273 kts 303°
2026-04-21 09:25 -34.82783 138.50563 7907 ft 273 kts 327°
2026-04-21 09:26 -34.81092 138.49502 8577 ft 275 kts 335°
2026-04-21 09:26 -34.79345 138.48522 9263 ft 278 kts 335°
2026-04-21 09:26 -34.77578 138.47530 9945 ft 281 kts 335°
2026-04-21 09:26 -34.75772 138.46511 10331 ft 296 kts 335°
2026-04-21 09:27 -34.73837 138.45420 10461 ft 317 kts 335°
2026-04-21 09:27 -34.71779 138.44254 10717 ft 333 kts 335°
2026-04-21 09:27 -34.69664 138.43055 11256 ft 338 kts 335°
2026-04-21 09:27 -34.67525 138.41842 11871 ft 341 kts 335°
2026-04-21 09:28 -34.65370 138.40620 12503 ft 343 kts 335°
2026-04-21 09:28 -34.63200 138.39393 13126 ft 345 kts 335°
2026-04-21 09:28 -34.61012 138.38165 13765 ft 348 kts 335°
2026-04-21 09:28 -34.58809 138.36931 14348 ft 350 kts 335°
2026-04-21 09:29 -34.56591 138.35689 14906 ft 352 kts 335°
2026-04-21 09:29 -34.54359 138.34435 15462 ft 355 kts 335°
2026-04-21 09:29 -34.52117 138.33172 16016 ft 357 kts 335°
2026-04-21 09:29 -34.49852 138.31899 16576 ft 360 kts 335°
2026-04-21 09:30 -34.47601 138.30634 17116 ft 363 kts 335°
2026-04-21 09:30 -34.45300 138.29342 17638 ft 366 kts 335°
2026-04-21 09:30 -34.42976 138.28041 18170 ft 369 kts 335°
2026-04-21 09:30 -34.40638 138.26731 18668 ft 372 kts 335°
2026-04-21 09:31 -34.38290 138.25413 19137 ft 374 kts 335°
2026-04-21 09:31 -34.35922 138.24083 19606 ft 376 kts 335°
2026-04-21 09:31 -34.33537 138.22745 20075 ft 379 kts 335°
2026-04-21 09:31 -34.31138 138.21400 20587 ft 381 kts 334°
2026-04-21 09:32 -34.28728 138.20051 21073 ft 383 kts 334°
2026-04-21 09:32 -34.26301 138.18696 21546 ft 385 kts 334°
2026-04-21 09:32 -34.23859 138.17334 22010 ft 388 kts 334°
2026-04-21 09:32 -34.21399 138.15962 22437 ft 391 kts 334°
2026-04-21 09:33 -34.18922 138.14580 22868 ft 393 kts 334°
2026-04-21 09:33 -34.16429 138.13189 23296 ft 396 kts 334°
2026-04-21 09:33 -34.13920 138.11791 23712 ft 398 kts 334°
2026-04-21 09:33 -34.11396 138.10387 24063 ft 400 kts 334°
2026-04-21 09:34 -34.08860 138.08977 24417 ft 402 kts 334°
2026-04-21 09:34 -34.06312 138.07562 24773 ft 404 kts 333°
2026-04-21 09:34 -34.03754 138.06142 25122 ft 405 kts 333°
2026-04-21 09:34 -34.01193 138.04716 25466 ft 407 kts 333°
2026-04-21 09:35 -33.98616 138.03280 25806 ft 409 kts 333°
2026-04-21 09:35 -33.96023 138.01840 26140 ft 411 kts 333°
2026-04-21 09:35 -33.93422 138.00399 26467 ft 413 kts 333°
2026-04-21 09:35 -33.90809 137.98951 26794 ft 414 kts 333°
2026-04-21 09:36 -33.88185 137.97497 27131 ft 416 kts 333°
2026-04-21 09:36 -33.85551 137.96040 27441 ft 418 kts 333°
2026-04-21 09:36 -33.82905 137.94579 27762 ft 419 kts 332°
2026-04-21 09:36 -33.80248 137.93113 28075 ft 421 kts 332°
2026-04-21 09:37 -33.77580 137.91642 28381 ft 423 kts 332°
2026-04-21 09:37 -33.74904 137.90168 28679 ft 424 kts 332°
2026-04-21 09:37 -33.72213 137.88688 28962 ft 426 kts 332°
2026-04-21 09:37 -33.69510 137.87204 29241 ft 428 kts 332°
2026-04-21 09:38 -33.66832 137.85735 29522 ft 430 kts 332°
2026-04-21 09:38 -33.64108 137.84241 29804 ft 431 kts 332°
2026-04-21 09:38 -33.61337 137.82719 30101 ft 433 kts 331°
2026-04-21 09:38 -33.58639 137.81235 30359 ft 435 kts 331°
2026-04-21 09:39 -33.55881 137.79719 30602 ft 436 kts 332°
2026-04-21 09:39 -33.53121 137.78206 30901 ft 436 kts 332°
2026-04-21 09:39 -33.50371 137.76702 31236 ft 435 kts 332°
2026-04-21 09:39 -33.47622 137.75199 31565 ft 434 kts 332°
2026-04-21 09:40 -33.44878 137.73697 31853 ft 434 kts 331°
2026-04-21 09:40 -33.42131 137.72196 32106 ft 434 kts 331°
2026-04-21 09:40 -33.36714 137.69240 32174 ft 421 kts 331°
2026-04-21 09:41 -33.31414 137.66341 32172 ft 418 kts 331°
2026-04-21 09:41 -33.26125 137.63456 32173 ft 418 kts 331°
2026-04-21 09:42 -33.20833 137.60578 32162 ft 418 kts 331°
2026-04-21 09:42 -33.15536 137.57705 32173 ft 419 kts 331°
2026-04-21 09:43 -33.10226 137.54824 32181 ft 419 kts 331°
2026-04-21 09:43 -33.04863 137.52059 32185 ft 423 kts 337°
2026-04-21 09:44 -32.99248 137.49921 32187 ft 424 kts 337°
2026-04-21 09:44 -32.93631 137.47778 32181 ft 424 kts 337°
2026-04-21 09:45 -32.88010 137.45635 32186 ft 424 kts 337°
2026-04-21 09:45 -32.82389 137.43499 32189 ft 425 kts 337°
2026-04-21 09:46 -32.79580 137.42430 32012 ft 422 kts 337°
2026-04-21 09:46 -32.76787 137.41367 31488 ft 420 kts 337°
2026-04-21 09:46 -32.74013 137.40314 31028 ft 419 kts 338°
2026-04-21 09:46 -32.71181 137.39236 30556 ft 437 kts 338°
2026-04-21 09:47 -32.68251 137.38117 30030 ft 445 kts 338°
2026-04-21 09:47 -32.65304 137.36997 29536 ft 444 kts 338°
2026-04-21 09:47 -32.62366 137.35886 29049 ft 443 kts 338°
2026-04-21 09:47 -32.59438 137.34782 28586 ft 440 kts 338°
2026-04-21 09:48 -32.56526 137.33686 28120 ft 438 kts 338°
2026-04-21 09:48 -32.53578 137.32569 27663 ft 453 kts 338°
2026-04-21 09:48 -32.50556 137.31426 27184 ft 458 kts 339°
2026-04-21 09:48 -32.47527 137.30272 26677 ft 456 kts 338°
2026-04-21 09:49 -32.44555 137.29000 26182 ft 452 kts 335°
2026-04-21 09:49 -32.41651 137.27606 25677 ft 448 kts 334°
2026-04-21 09:49 -32.38797 137.26148 25172 ft 445 kts 333°
2026-04-21 09:49 -32.35972 137.24672 24650 ft 442 kts 333°
2026-04-21 09:50 -32.33162 137.23214 24130 ft 440 kts 333°
2026-04-21 09:50 -32.30360 137.21786 23556 ft 437 kts 334°
2026-04-21 09:50 -32.27567 137.20393 22994 ft 434 kts 334°
2026-04-21 09:50 -32.24787 137.19031 22447 ft 431 kts 335°
2026-04-21 09:51 -32.22032 137.17695 21909 ft 427 kts 335°
2026-04-21 09:51 -32.19294 137.16370 21365 ft 423 kts 335°
2026-04-21 09:51 -32.16580 137.15056 20825 ft 420 kts 336°
2026-04-21 09:51 -32.13892 137.13751 20291 ft 416 kts 336°
2026-04-21 09:52 -32.11228 137.12452 19754 ft 413 kts 336°
2026-04-21 09:52 -32.08587 137.11159 19225 ft 409 kts 336°
2026-04-21 09:52 -32.05970 137.09876 18698 ft 406 kts 336°
2026-04-21 09:52 -32.03375 137.08603 18133 ft 402 kts 336°
2026-04-21 09:53 -32.00799 137.07341 17602 ft 400 kts 337°
2026-04-21 09:53 -31.98271 137.06108 17103 ft 397 kts 337°
2026-04-21 09:53 -31.95721 137.04869 16583 ft 395 kts 337°
2026-04-21 09:53 -31.93188 137.03637 16072 ft 393 kts 337°
2026-04-21 09:54 -31.90669 137.02413 15562 ft 390 kts 337°
2026-04-21 09:54 -31.88165 137.01196 15061 ft 388 kts 337°
2026-04-21 09:54 -31.85642 136.99968 14551 ft 386 kts 337°
2026-04-21 09:54 -31.83199 136.98780 14074 ft 384 kts 338°
2026-04-21 09:55 -31.80705 136.97568 13551 ft 380 kts 338°
2026-04-21 09:55 -31.78350 136.96426 13405 ft 362 kts 338°
2026-04-21 09:55 -31.76114 136.95342 13033 ft 336 kts 338°
2026-04-21 09:55 -31.73989 136.94310 12224 ft 326 kts 338°
2026-04-21 09:56 -31.71938 136.93314 11756 ft 308 kts 338°
2026-04-21 09:56 -31.69987 136.92365 11278 ft 294 kts 338°
2026-04-21 09:56 -31.68179 136.91490 10987 ft 275 kts 338°
2026-04-21 09:56 -31.66438 136.90651 10647 ft 269 kts 338°
2026-04-21 09:57 -31.64711 136.89817 10320 ft 268 kts 338°
2026-04-21 09:57 -31.62964 136.88974 9830 ft 274 kts 338°
2026-04-21 09:57 -31.61774 136.88401 9555 ft 274 kts 338°
2026-04-21 09:57 -31.59458 136.87282 9257 ft 266 kts 338°
2026-04-21 09:58 -31.58319 136.86731 9169 ft 259 kts 338°
2026-04-21 09:58 -31.56680 136.85938 9021 ft 251 kts 338°
2026-04-21 09:58 -31.55081 136.85163 8750 ft 246 kts 338°
2026-04-21 09:58 -31.53509 136.84405 8201 ft 243 kts 338°
2026-04-21 09:59 -31.51950 136.83655 7643 ft 240 kts 338°
2026-04-21 09:59 -31.50409 136.82913 7298 ft 240 kts 338°
2026-04-21 09:59 -31.48862 136.82167 6984 ft 240 kts 338°
2026-04-21 09:59 -31.47326 136.81423 6682 ft 238 kts 339°
2026-04-21 10:00 -31.45800 136.80685 6390 ft 234 kts 339°
2026-04-21 10:00 -31.44333 136.79980 6251 ft 222 kts 339°
2026-04-21 10:00 -31.42938 136.79309 6126 ft 211 kts 339°
2026-04-21 10:00 -31.41536 136.78619 5699 ft 236 kts 342°
2026-04-21 10:01 -31.39910 136.78304 5288 ft 244 kts
2026-04-21 10:01 -31.38194 136.78426 4936 ft 243 kts
2026-04-21 10:01 -31.36557 136.78618 4603 ft 228 kts
2026-04-21 10:01 -31.35045 136.78800 4330 ft 217 kts
2026-04-21 10:02 -31.32101 136.79163 3768 ft 208 kts
2026-04-21 10:02 -31.30672 136.79336 3510 ft 203 kts
2026-04-21 10:02 -31.29299 136.79502 3245 ft 193 kts
2026-04-21 10:03 -31.27989 136.79660 2978 ft 185 kts
2026-04-21 10:03 -31.26738 136.79811 2734 ft 176 kts
2026-04-21 10:03 -31.25542 136.79956 2503 ft 169 kts
2026-04-21 10:03 -31.24416 136.80088 2303 ft 155 kts
2026-04-21 10:04 -31.23371 136.80213 2093 ft 148 kts
2026-04-21 10:04 -31.22356 136.80335 1912 ft 146 kts
2026-04-21 10:04 -31.21346 136.80456 1709 ft 146 kts
2026-04-21 10:04 -31.20339 136.80575 1515 ft 145 kts
2026-04-21 10:05 -31.19332 136.80693 1325 ft 145 kts
2026-04-21 10:05 -31.18324 136.80800 1141 ft 146 kts
2026-04-21 10:05 -31.17319 136.80929 929 ft 145 kts
2026-04-21 10:05 -31.16320 136.81038 696 ft 144 kts
2026-04-21 10:06 -31.15330 136.81173 580 ft 141 kts
2026-04-21 10:06 -31.14467 136.81270 549 ft 103 kts
2026-04-21 10:06 -31.13938 136.81334 546 ft 40 kts
2026-04-21 10:06 -31.13784 136.81337 544 ft 12 kts 348°
2026-04-21 10:07 -31.13766 136.81366 544 ft 3 kts 158°
2026-04-21 10:07 -31.13798 136.81362 548 ft 5 kts 189°
2026-04-21 10:07 -31.13870 136.81346 549 ft 16 kts 191°
2026-04-21 10:07 -31.13984 136.81327 546 ft 17 kts 187°
2026-04-21 10:08 -31.14102 136.81313 546 ft 18 kts 184°
2026-04-21 10:08 -31.14225 136.81303 547 ft 18 kts 184°
2026-04-21 10:08 -31.14345 136.81287 554 ft 17 kts 188°
2026-04-21 10:08 -31.14465 136.81271 549 ft 18 kts 186°
2026-04-21 10:09 -31.14578 136.81248 553 ft 15 kts 208°
2026-04-21 10:09 -31.14604 136.81137 549 ft 15 kts 274°
2026-04-21 10:09 -31.14594 136.81019 549 ft 13 kts 276°
2026-04-21 10:09 -31.14597 136.80912 550 ft 14 kts 243°
2026-04-21 10:10 -31.14680 136.80867 550 ft 14 kts 187°
2026-04-21 10:10 -31.14777 136.80857 550 ft 15 kts 186°
2026-04-21 10:10 -31.14880 136.80844 551 ft 15 kts 186°
2026-04-21 10:10 -31.14969 136.80784 556 ft 14 kts 233°
2026-04-21 10:11 -31.14988 136.80698 562 ft 10 kts 285°
2026-04-21 10:11 -31.14996 136.80675 558 ft 0 kts 178°
2026-04-21 10:11 -31.14997 136.80682 560 ft 1 kts 119°
2026-04-21 10:11 -31.14982 136.80684 560 ft 1 kts 326°
2026-04-21 10:12 -31.14956 136.80659 577 ft 7 kts 318°
2026-04-21 10:12 -31.14931 136.80629 559 ft 3 kts 312°
2026-04-21 10:12 -31.14929 136.80627 561 ft 0 kts 312°